Погода в Рылеве

Россия / Тульская область     53°51′03″N   36°50′06″E
темп.,
°C
ветер,
м/с
пор.,
м/с
влажн.,
%
обл.,
%
осадки,
мм/ч
давл.,
гПа
погр.,
м
6 мая, чт
чт600:00+9ю61582100 0.0 1010357
03:00+9ююз61485100 0.0 1009353
06:00+10ю81775100 0.0 1008732
09:00+13ююз91572100 0.0 10081209
12:00+14ю101865100 0.4 10072031
15:00+11ююз111677100 0.7 10071502
18:00+8юз81394100 1.4 1008848
21:00+7юз4994100 1.6 1011304
7 мая, пт
пт700:00+5юз4109566 0.0 1012256
03:00+4зюз3593100 0.0 101391
06:00+4юз37875 0.0 1014157
09:00+10юз57621 0.0 1015631
12:00+13юз68445 0.0 10152059
15:00+14ююз6950100 0.0 10142141
18:00+13ююз4864100 0.1 1013570
21:00+10ююв497399 0.1 1013181
8 мая, сб
сб800:00+9ююв6147598 0.0 1011319
03:00+10ююв61473100 0.1 1010627
06:00+9ююв71394100 0.9 1007450
09:00+9ююв71496100 7.3 1005774
12:00+11ююз61092100 0.6 1004941
15:00+9зюз61194100 1.5 1006662
18:00+9з71076100 0.6 10071012
21:00+5зюз41084100 0.6 1009328
9 мая, вс
вс900:00+5зюз51283100 0.0 1009590
03:00+3зюз5129168 0.0 1011494
06:00+4з51184100 0.0 1012777
09:00+4з51096100 0.1 1015916
12:00+7сз7972100 0.1 10161331
15:00+11сз7104811 0.1 10172067
18:00+11сз69569 0.0 10191143
21:00+5сз49715 0.0 1022158
10 мая, пн
пн1000:00+4ссз49730 0.0 1024148
03:00+2ссз37760 0.0 1025111
06:00+3ссз37780 0.0 1027162
09:00+9с47610 0.0 1027566
12:00+12с68492 0.0 10261423
15:00+14ссв79472 0.0 10261561
18:00+13св69572 0.0 10261070
21:00+9ссв41165100 0.0 1026281